FENGYUN 1C DEB

Satellite information

Favourite Embed

Satellite Type and Status

DEBRISIN ORBIT

Key statistics

Satellite FENGYUN 1C DEB at a glance.

Uptime

9669

Days in orbit

Revolutions

≈ 14.8

Per day

Orbit

SSO

Sun Synchronous Orbit

Inclination

99.1

Latest

Satellite identification and parameters

Extended collection of information and parameters for FENGYUN 1C DEB.

Object identification

Identified? True

Debris? True

Object name: FENGYUN 1C DEB

International designator: 1999-025EPA

Object number (NORAD): 37925

Object ID (CCSDS): 37925

Country: PEOPLES REPUBLIC OF CHINA (PRC)

Current information (Y/N): Y

RCS size: SMALL

Orbital parameters

Period: 97.388 minutes

Inclination: 99.0905 deg

SMA: 7011.796 km

Apoapsis: 674.344 km

Periapsis: 592.977 km

RAAN: 161.8196 deg

Eccentricy: 0.00580211

Argument of periapsis: 130.5184 deg

Mean anomaly: 230.1099 deg

Mean motion: 14.7862791 rev/day

Mean motion (dot): 0.00011013 rev/day2

B* drag term: 0.001468873 1/REarth

Two-line elements (TLE)

Creation date: Oct. 26, 2025, 2:54 a.m.

Reference frame: TEME

Reference center: EARTH

Epoch: Oct. 25, 2025, 9:07 p.m. UTC

TLE line 0: 0 FENGYUN 1C DEB

TLE line 1: 1 37925U 99025EPA 25298.88045335 .00011013 00000-0 14689-2 0 9999

TLE line 2: 2 37925 99.0905 161.8196 0058021 130.5184 230.1099 14.78627910649750

Live tracking on map

Real-time ground track for satellite FENGYUN 1C DEB.

In-orbit conjunctions

A list of the most updated potential collisions computed for object FENGYUN 1C DEB.

Target Orbit TCA Probability of collision Miss distance Type
CZ-6A DEB LEO 2024-12-01 13:33:08 0.0001133621 885.0 (m) DEBRIS
CZ-6A DEB LEO 2024-11-23 08:26:43 0.0001330979 895.0 (m) DEBRIS
COSMOS 2251 DEB LEO 2024-09-24 17:58:05 0.003838594 107.0 (m) DEBRIS

Associated space launch

Chinese polar orbiting meteorological satellite

FENGYUN 1C DEB was lifted into orbit during the mission ‘Long March 4B | Feng Yun 1C’, on board a Long March 4B space rocket.

The launch took place on May 10, 1999, 1:33 a.m. from Launch Complex 7.

For more information about the launch, click the button.

Launch to space Long March 4B | Feng Yun 1C
Long March 4B | Feng Yun 1C

Agency: N/A

Status: Launch Successful

Launch date: May 10, 1999, 1:33 a.m. UTC

Rocket: Long March 4B

Launch pad: Launch Complex 7

Location: Taiyuan Satellite Launch Center, People's Republic of China

...

Latest news about this satellite

There are no fresh news available about this satellite. Check back as we update our databases every day.


Newsletter sign-up

Weekly statistics, charts and insights to help you stay on top of the space industry.